,,,PA_Meas_PMT16A,,PR_Meas_QMR101_102,,RH_Meas_QMH101,,SR_Meas_QMS101,,TA_Meas_QMH101,,GenWind,,GenWind,
date,time,status,PA,status,PR,status,RH,status,SR,status,TA,status,DirAvg,status,SpdAvg,
2010-01-26, 00:00:05,VALID,1012.41,VALID,0,VALID,91.1354,VALID,0,VALID,23.1095,VALID,168,VALID,0.620313,
2010-01-26, 00:01:05,VALID,1012.38,VALID,0,VALID,91.1506,VALID,0,VALID,23.09,VALID,172,VALID,0.595703,
2010-01-26, 00:02:05,VALID,1012.39,VALID,0,VALID,91.1583,VALID,0,VALID,23.09,VALID,174,VALID,0.378906,
2010-01-26, 00:03:05,VALID,1012.38,VALID,0,VALID,91.143,VALID,0,VALID,23.09,VALID,174,VALID,0.541406,
2010-01-26, 00:04:05,VALID,1012.37,VALID,0,VALID,91.143,VALID,0,VALID,23.1112,VALID,152,VALID,0.626953,
2010-01-26, 00:05:05,VALID,1012.37,VALID,0,VALID,91.1583,VALID,0,VALID,23.1112,VALID,152,VALID,0.446875,
2010-01-26, 00:06:05,VALID,1012.35,VALID,0,VALID,91.1354,VALID,0,VALID,23.09,VALID,152,VALID,0.462109,
2010-01-26, 00:07:05,VALID,1012.34,VALID,0,VALID,91.1506,VALID,0,VALID,23.09,VALID,152,VALID,0.35625,
2010-01-26, 00:08:05,VALID,1012.34,VALID,0,VALID,91.1583,VALID,0,VALID,23.09,VALID,152,VALID,0.0125,
2010-01-26, 00:09:05,VALID,1012.31,VALID,0,VALID,91.1278,VALID,0,VALID,23.1095,VALID,134,VALID,0.902344,
2010-01-26, 00:10:05,VALID,1012.33,VALID,0,VALID,91.1278,VALID,0,VALID,23.129,VALID,133,VALID,0.711328,
2010-01-26, 00:11:05,VALID,1012.34,VALID,0,VALID,91.1125,VALID,0,VALID,23.1485,VALID,133,VALID,0.567187,
2010-01-26, 00:12:05,VALID,1012.29,VALID,0,VALID,91.1125,VALID,0,VALID,23.1679,VALID,132,VALID,0.644922,
2010-01-26, 00:13:05,VALID,1012.29,VALID,0,VALID,91.0973,VALID,0,VALID,23.1485,VALID,134,VALID,0.305078,
2010-01-26, 00:14:05,VALID,1012.3,VALID,0,VALID,91.1049,VALID,0,VALID,23.1892,VALID,134,VALID,0.357031,
2010-01-26, 00:15:05,VALID,1012.26,VALID,0,VALID,91.1049,VALID,0,VALID,23.1874,VALID,134,VALID,0.303125,
2010-01-26, 00:16:05,VALID,1012.26,VALID,0,VALID,91.0896,VALID,0,VALID,23.2087,VALID,166,VALID,0.785937,
2010-01-26, 00:17:05,VALID,1012.26,VALID,0,VALID,91.0896,VALID,0,VALID,23.2069,VALID,184,VALID,0.512109,
2010-01-26, 00:18:05,VALID,1012.23,VALID,0,VALID,91.082,VALID,0,VALID,23.2264,VALID,184,VALID,0.25625,
2010-01-26, 00:19:05,VALID,1012.2,VALID,0,VALID,91.0591,VALID,0,VALID,23.2459,VALID,184,VALID,0,
2010-01-26, 00:20:05,VALID,1012.2,VALID,0,VALID,91.0667,VALID,0,VALID,23.2264,VALID,182,VALID,0.641406,
2010-01-26, 00:21:05,VALID,1012.2,VALID,0,VALID,91.082,VALID,0,VALID,23.2476,VALID,177,VALID,1.04023,
2010-01-26, 00:22:05,VALID,1012.2,VALID,0,VALID,91.0744,VALID,0,VALID,23.2459,VALID,196,VALID,0.359766,
2010-01-26, 00:23:05,VALID,1012.17,VALID,0,VALID,91.0973,VALID,0,VALID,23.2264,VALID,220,VALID,0.922266,
2010-01-26, 00:24:05,VALID,1012.16,VALID,0,VALID,91.0973,VALID,0,VALID,23.2476,VALID,182,VALID,1.18086,
2010-01-26, 00:25:05,VALID,1012.14,VALID,0,VALID,91.0744,VALID,0.105969,VALID,23.2459,VALID,165,VALID,0.48125,
2010-01-26, 00:26:05,VALID,1012.1,VALID,0,VALID,91.0896,VALID,0,VALID,23.2069,VALID,194,VALID,1.1582,
2010-01-26, 00:27:05,VALID,1012.08,VALID,0,VALID,91.1125,VALID,0,VALID,23.2069,VALID,158,VALID,1.22656,
2010-01-26, 00:28:05,VALID,1012.09,VALID,0,VALID,91.0973,VALID,0,VALID,23.1874,VALID,155,VALID,0.639844,
2010-01-26, 00:29:05,VALID,1012.04,VALID,0,VALID,91.1278,VALID,0,VALID,23.2069,VALID,178,VALID,1.24219,
2010-01-26, 00:30:05,VALID,1012.01,VALID,0,VALID,91.1049,VALID,0,VALID,23.2069,VALID,168,VALID,0.827734,
2010-01-26, 00:31:05,VALID,1012.01,VALID,0,VALID,91.1201,VALID,0,VALID,23.2069,VALID,178,VALID,0.703516,
2010-01-26, 00:32:05,VALID,1011.99,VALID,0,VALID,91.082,VALID,0,VALID,23.2282,VALID,158,VALID,0.852344,
2010-01-26, 00:33:05,VALID,1011.98,VALID,0,VALID,91.1049,VALID,0,VALID,23.2069,VALID,165,VALID,0.0621094,
2010-01-26, 00:34:05,VALID,1011.97,VALID,0,VALID,91.0896,VALID,0,VALID,23.2264,VALID,157,VALID,0.6,
2010-01-26, 00:35:05,VALID,1011.95,VALID,0,VALID,91.1049,VALID,0,VALID,23.2264,VALID,168,VALID,0.992578,
2010-01-26, 00:36:05,VALID,1011.94,VALID,0,VALID,91.1049,VALID,0,VALID,23.2069,VALID,147,VALID,1.49805,
2010-01-26, 00:37:05,VALID,1011.93,VALID,0,VALID,91.1125,VALID,0,VALID,23.2051,VALID,128,VALID,0.846875,
2010-01-26, 00:38:05,VALID,1011.91,VALID,0,VALID,91.1201,VALID,0,VALID,23.2069,VALID,126,VALID,0.948828,
2010-01-26, 00:39:05,VALID,1011.9,VALID,0,VALID,91.0973,VALID,0,VALID,23.2264,VALID,111,VALID,0.857031,
2010-01-26, 00:40:05,VALID,1011.88,VALID,0,VALID,91.0973,VALID,0,VALID,23.2264,VALID,135,VALID,1.00703,
2010-01-26, 00:41:05,VALID,1011.86,VALID,0,VALID,91.0973,VALID,0,VALID,23.2282,VALID,132,VALID,1.0168,
2010-01-26, 00:42:05,VALID,1011.84,VALID,0,VALID,91.1125,VALID,0,VALID,23.2069,VALID,118,VALID,0.742578,
2010-01-26, 00:43:05,VALID,1011.81,VALID,0,VALID,91.1125,VALID,0,VALID,23.2282,VALID,117,VALID,1.38984,
2010-01-26, 00:44:05,VALID,1011.81,VALID,0,VALID,91.1201,VALID,0,VALID,23.1679,VALID,174,VALID,1.20117,
2010-01-26, 00:45:05,VALID,1011.8,VALID,0,VALID,91.1201,VALID,0,VALID,23.1874,VALID,170,VALID,1.12031,
2010-01-26, 00:46:05,VALID,1011.8,VALID,0,VALID,91.143,VALID,0,VALID,23.1679,VALID,149,VALID,0.875391,
2010-01-26, 00:47:05,VALID,1011.79,VALID,0,VALID,91.1049,VALID,0,VALID,23.2087,VALID,166,VALID,0.520703,
2010-01-26, 00:48:05,VALID,1011.77,VALID,0,VALID,91.1125,VALID,0,VALID,23.1874,VALID,186,VALID,0.369141,
2010-01-26, 00:49:05,VALID,1011.74,VALID,0,VALID,91.1125,VALID,0,VALID,23.2087,VALID,159,VALID,0.742188,
2010-01-26, 00:50:05,VALID,1011.74,VALID,0,VALID,91.1354,VALID,0,VALID,23.1485,VALID,165,VALID,0.975391,
2010-01-26, 00:51:05,VALID,1011.73,VALID,0,VALID,91.1506,VALID,0,VALID,23.1502,VALID,155,VALID,1.40273,
2010-01-26, 00:52:05,VALID,1011.69,VALID,0,VALID,91.143,VALID,0,VALID,23.129,VALID,168,VALID,1.22266,
2010-01-26, 00:53:05,VALID,1011.66,VALID,0,VALID,91.1506,VALID,0,VALID,23.129,VALID,167,VALID,1.27422,
2010-01-26, 00:54:05,VALID,1011.67,VALID,0,VALID,91.1506,VALID,0,VALID,23.129,VALID,176,VALID,0.492188,
2010-01-26, 00:55:05,VALID,1011.65,VALID,0,VALID,91.1201,VALID,0,VALID,23.1485,VALID,133,VALID,0.74375,
2010-01-26, 00:56:05,VALID,1011.62,VALID,0,VALID,91.1278,VALID,0,VALID,23.1095,VALID,153,VALID,1.23281,
2010-01-26, 00:57:05,VALID,1011.62,VALID,0,VALID,91.1506,VALID,0,VALID,23.129,VALID,158,VALID,0.640625,
2010-01-26, 00:58:05,VALID,1011.61,VALID,0,VALID,91.1278,VALID,0,VALID,23.129,VALID,158,VALID,0.361328,
2010-01-26, 00:59:05,VALID,1011.59,VALID,0,VALID,91.1201,VALID,0,VALID,23.1485,VALID,175,VALID,0.852734,
2010-01-26, 01:00:05,VALID,1011.6,VALID,0,VALID,91.1049,VALID,0,VALID,23.1485,VALID,172,VALID,0.905078,
2010-01-26, 01:01:05,VALID,1011.59,VALID,0,VALID,91.0896,VALID,0,VALID,23.1679,VALID,134,VALID,0.524219,
2010-01-26, 01:02:05,VALID,1011.61,VALID,0,VALID,91.1125,VALID,0,VALID,23.1502,VALID,153,VALID,1.05586,
2010-01-26, 01:03:05,VALID,1011.59,VALID,0,VALID,91.1201,VALID,0,VALID,23.1095,VALID,165,VALID,0.655469,
2010-01-26, 01:04:05,VALID,1011.57,VALID,0,VALID,91.1049,VALID,0,VALID,23.129,VALID,127,VALID,0.312891,
2010-01-26, 01:05:05,VALID,1011.53,VALID,0,VALID,91.1354,VALID,0,VALID,23.1095,VALID,120,VALID,0.501953,
2010-01-26, 01:06:05,VALID,1011.53,VALID,0,VALID,91.0896,VALID,0,VALID,23.1502,VALID,113,VALID,0.698047,
2010-01-26, 01:07:05,VALID,1011.53,VALID,0,VALID,91.0744,VALID,0,VALID,23.1485,VALID,109,VALID,0.272266,
2010-01-26, 01:08:05,VALID,1011.48,VALID,0,VALID,91.0744,VALID,0,VALID,23.1679,VALID,128,VALID,0.00742187,
2010-01-26, 01:09:05,VALID,1011.45,VALID,0,VALID,91.0973,VALID,0,VALID,23.1095,VALID,126,VALID,1.1418,
2010-01-26, 01:10:05,VALID,1011.37,VALID,0,VALID,91.1354,VALID,0,VALID,23.1307,VALID,123,VALID,0.849219,
2010-01-26, 01:11:05,VALID,1011.37,VALID,0,VALID,91.0973,VALID,0,VALID,23.129,VALID,121,VALID,1.12344,
2010-01-26, 01:12:05,VALID,1011.37,VALID,0,VALID,91.1201,VALID,0,VALID,23.1112,VALID,126,VALID,1.39531,
2010-01-26, 01:13:05,VALID,1011.36,VALID,0,VALID,91.1354,VALID,0.105969,VALID,23.0883,VALID,115,VALID,0.845312,
2010-01-26, 01:14:05,VALID,1011.33,VALID,0,VALID,91.1125,VALID,0.105969,VALID,23.1077,VALID,124,VALID,1.2457,
2010-01-26, 01:15:05,VALID,1011.29,VALID,0,VALID,91.1201,VALID,0.105969,VALID,23.0883,VALID,140,VALID,0.895703,
2010-01-26, 01:16:05,VALID,1011.28,VALID,0,VALID,91.1049,VALID,0,VALID,23.0688,VALID,126,VALID,0.993359,
2010-01-26, 01:17:05,VALID,1011.26,VALID,0,VALID,91.1125,VALID,0.105969,VALID,23.0883,VALID,123,VALID,0.701563,
2010-01-26, 01:18:05,VALID,1011.25,VALID,0,VALID,91.0744,VALID,0.105969,VALID,23.0883,VALID,139,VALID,0.894531,
2010-01-26, 01:19:05,VALID,1011.25,VALID,0,VALID,91.1049,VALID,0.105969,VALID,23.0688,VALID,128,VALID,1.0293,
2010-01-26, 01:20:05,VALID,1011.23,VALID,0,VALID,91.1049,VALID,0.105969,VALID,23.09,VALID,128,VALID,0.988672,
2010-01-26, 01:21:05,VALID,1011.21,VALID,0,VALID,91.0973,VALID,0.105969,VALID,23.09,VALID,136,VALID,1.18672,
2010-01-26, 01:22:05,VALID,1011.19,VALID,0,VALID,91.0896,VALID,0,VALID,23.0883,VALID,124,VALID,1.17422,
2010-01-26, 01:23:05,VALID,1011.15,VALID,0,VALID,91.0973,VALID,0.105969,VALID,23.0688,VALID,108,VALID,0.530078,
2010-01-26, 01:24:05,VALID,1011.19,VALID,0,VALID,91.0973,VALID,0.105969,VALID,23.0883,VALID,123,VALID,0.891016,
2010-01-26, 01:25:05,VALID,1011.15,VALID,0,VALID,91.0896,VALID,0.105969,VALID,23.09,VALID,149,VALID,0.774219,
2010-01-26, 01:26:05,VALID,1011.13,VALID,0,VALID,91.0973,VALID,0.105969,VALID,23.09,VALID,144,VALID,0.90625,
2010-01-26, 01:27:05,VALID,1011.12,VALID,0,VALID,91.0591,VALID,0.105969,VALID,23.1077,VALID,116,VALID,0.759375,
2010-01-26, 01:28:05,VALID,1011.12,VALID,0,VALID,91.0667,VALID,0,VALID,23.1095,VALID,141,VALID,0.834375,
2010-01-26, 01:29:05,VALID,1011.08,VALID,0,VALID,91.0973,VALID,0,VALID,23.0511,VALID,115,VALID,1.63516,
2010-01-26, 01:30:05,VALID,1011.09,VALID,0,VALID,91.1049,VALID,0,VALID,23.0511,VALID,149,VALID,1.40586,
2010-01-26, 01:31:05,VALID,1011.06,VALID,0,VALID,91.0973,VALID,0,VALID,23.0316,VALID,139,VALID,1.52109,
2010-01-26, 01:32:05,VALID,1011.02,VALID,0,VALID,91.0896,VALID,0,VALID,23.0705,VALID,151,VALID,0.837109,
2010-01-26, 01:33:05,VALID,1011,VALID,0,VALID,91.0896,VALID,0,VALID,23.0528,VALID,147,VALID,1.26484,
2010-01-26, 01:34:05,VALID,1010.99,VALID,0,VALID,91.0973,VALID,0,VALID,23.0511,VALID,161,VALID,1.22305,
2010-01-26, 01:35:05,VALID,1010.95,VALID,0,VALID,91.0973,VALID,0,VALID,23.0511,VALID,140,VALID,1.23164,
2010-01-26, 01:36:04,VALID,1010.93,VALID,0,VALID,91.0896,VALID,0,VALID,23.0511,VALID,135,VALID,0.948438,
2010-01-26, 01:37:04,VALID,1010.91,VALID,0,VALID,91.0667,VALID,0,VALID,23.0511,VALID,130,VALID,0.966016,
2010-01-26, 01:38:04,VALID,1010.93,VALID,0,VALID,91.0744,VALID,0,VALID,23.0723,VALID,148,VALID,0.517969,
2010-01-26, 01:39:04,VALID,1010.9,VALID,0,VALID,91.0591,VALID,0,VALID,23.0918,VALID,130,VALID,0.921094,
2010-01-26, 01:40:04,VALID,1010.88,VALID,0,VALID,91.0591,VALID,0,VALID,23.0705,VALID,120,VALID,0.783984,
2010-01-26, 01:41:04,VALID,1010.88,VALID,0,VALID,91.0515,VALID,0,VALID,23.0705,VALID,112,VALID,0.891797,
2010-01-26, 01:42:04,VALID,1010.86,VALID,0,VALID,91.082,VALID,0,VALID,23.09,VALID,110,VALID,0.633594,
2010-01-26, 01:43:04,VALID,1010.87,VALID,0,VALID,91.0667,VALID,0.105969,VALID,23.0883,VALID,118,VALID,0.689453,
2010-01-26, 01:44:04,VALID,1010.83,VALID,0,VALID,91.0515,VALID,0.105969,VALID,23.1095,VALID,120,VALID,0.821094,
2010-01-26, 01:45:04,VALID,1010.8,VALID,0,VALID,91.0515,VALID,0.105969,VALID,23.1095,VALID,148,VALID,0.641016,
2010-01-26, 01:46:04,VALID,1010.78,VALID,0,VALID,91.0744,VALID,0,VALID,23.0493,VALID,153,VALID,1.4125,
2010-01-26, 01:47:04,VALID,1010.77,VALID,0,VALID,91.0744,VALID,0.105969,VALID,23.0688,VALID,148,VALID,0.878125,
2010-01-26, 01:48:04,VALID,1010.75,VALID,0,VALID,91.0515,VALID,0,VALID,23.0883,VALID,140,VALID,0.710938,
2010-01-26, 01:49:04,VALID,1010.74,VALID,0,VALID,91.0591,VALID,0,VALID,23.1077,VALID,145,VALID,0.461328,
2010-01-26, 01:50:04,VALID,1010.71,VALID,0,VALID,90.9981,VALID,0.105969,VALID,23.1272,VALID,135,VALID,0.0546875,
2010-01-26, 01:51:04,VALID,1010.71,VALID,0,VALID,91.0591,VALID,0.105969,VALID,23.0883,VALID,148,VALID,1.08281,
2010-01-26, 01:52:04,VALID,1010.68,VALID,0,VALID,91.0591,VALID,0.105969,VALID,23.0883,VALID,113,VALID,0.858203,
2010-01-26, 01:53:04,VALID,1010.66,VALID,0,VALID,91.0439,VALID,0.105969,VALID,23.129,VALID,123,VALID,0.714453,
2010-01-26, 01:54:04,VALID,1010.65,VALID,0,VALID,91.0286,VALID,0.105969,VALID,23.1077,VALID,107,VALID,0.766406,
2010-01-26, 01:55:04,VALID,1010.64,VALID,0,VALID,91.0134,VALID,0.105969,VALID,23.1467,VALID,86,VALID,0.634766,
2010-01-26, 01:56:04,VALID,1010.59,VALID,0,VALID,91.0362,VALID,0.105969,VALID,23.1485,VALID,89,VALID,0.684766,
2010-01-26, 01:57:04,VALID,1010.59,VALID,0,VALID,91.0667,VALID,0.105969,VALID,23.0883,VALID,87,VALID,1.19102,
2010-01-26, 01:58:04,VALID,1010.54,VALID,0,VALID,91.0744,VALID,0,VALID,23.09,VALID,99,VALID,0.848828,
2010-01-26, 01:59:04,VALID,1010.53,VALID,0,VALID,91.0591,VALID,0,VALID,23.1095,VALID,102,VALID,0.439063,
2010-01-26, 02:00:04,VALID,1010.5,VALID,0,VALID,91.0591,VALID,0,VALID,23.0918,VALID,105,VALID,1.54922,
2010-01-26, 02:01:04,VALID,1010.51,VALID,0,VALID,91.082,VALID,0,VALID,23.0705,VALID,136,VALID,1.14648,
2010-01-26, 02:02:04,VALID,1010.51,VALID,0,VALID,91.0667,VALID,0,VALID,23.0511,VALID,101,VALID,1.11953,
2010-01-26, 02:03:04,VALID,1010.51,VALID,0,VALID,91.082,VALID,0,VALID,23.0121,VALID,103,VALID,0.753516,
2010-01-26, 02:04:04,VALID,1010.44,VALID,0,VALID,91.0744,VALID,0,VALID,23.0511,VALID,133,VALID,0.990234,
2010-01-26, 02:05:04,VALID,1010.46,VALID,0,VALID,91.0744,VALID,0,VALID,23.0316,VALID,127,VALID,0.738672,
2010-01-26, 02:06:04,VALID,1010.46,VALID,0,VALID,91.0744,VALID,0,VALID,23.0528,VALID,118,VALID,0.798047,
2010-01-26, 02:07:04,VALID,1010.44,VALID,0,VALID,91.0667,VALID,0,VALID,23.0316,VALID,126,VALID,0.717188,
2010-01-26, 02:08:04,VALID,1010.43,VALID,0,VALID,91.0744,VALID,0,VALID,23.0121,VALID,143,VALID,1.08164,
2010-01-26, 02:09:04,VALID,1010.43,VALID,0,VALID,91.1125,VALID,0,VALID,23.0333,VALID,123,VALID,0.889063,
2010-01-26, 02:10:04,VALID,1010.4,VALID,0,VALID,91.0744,VALID,0,VALID,23.0333,VALID,122,VALID,0.702734,
2010-01-26, 02:11:04,VALID,1010.36,VALID,0,VALID,91.0896,VALID,0,VALID,23.0511,VALID,113,VALID,0.465625,
2010-01-26, 02:12:04,VALID,1010.36,VALID,0,VALID,91.082,VALID,0,VALID,23.0316,VALID,113,VALID,0,
2010-01-26, 02:13:04,VALID,1010.33,VALID,0,VALID,91.0591,VALID,0,VALID,23.0528,VALID,108,VALID,0.0773437,
2010-01-26, 02:14:04,VALID,1010.33,VALID,0,VALID,91.082,VALID,0,VALID,22.9926,VALID,97,VALID,1.03828,
2010-01-26, 02:15:04,VALID,1010.33,VALID,0,VALID,91.1049,VALID,0,VALID,22.9926,VALID,96,VALID,0.646484,
2010-01-26, 02:16:04,VALID,1010.29,VALID,0,VALID,91.1049,VALID,0,VALID,22.9926,VALID,97,VALID,0.494922,
2010-01-26, 02:17:04,VALID,1010.31,VALID,0,VALID,91.0744,VALID,0,VALID,23.0121,VALID,89,VALID,0.483203,
2010-01-26, 02:18:04,VALID,1010.3,VALID,0,VALID,91.0896,VALID,0,VALID,23.0121,VALID,89,VALID,0,
2010-01-26, 02:19:04,VALID,1010.3,VALID,0,VALID,91.0667,VALID,0,VALID,23.0316,VALID,89,VALID,0,
2010-01-26, 02:20:04,VALID,1010.27,VALID,0,VALID,91.0591,VALID,0,VALID,23.0528,VALID,123,VALID,0.272266,
2010-01-26, 02:21:04,VALID,1010.3,VALID,0,VALID,91.0744,VALID,0,VALID,23.0333,VALID,145,VALID,0.852344,
2010-01-26, 02:22:04,VALID,1010.3,VALID,0,VALID,91.1049,VALID,0,VALID,22.9731,VALID,162,VALID,0.655859,
2010-01-26, 02:23:04,VALID,1010.27,VALID,0,VALID,91.0973,VALID,0,VALID,23.0138,VALID,162,VALID,0.161719,
2010-01-26, 02:24:04,VALID,1010.28,VALID,0,VALID,91.0896,VALID,0,VALID,22.9926,VALID,162,VALID,0,
2010-01-26, 02:25:04,VALID,1010.25,VALID,0,VALID,91.0896,VALID,0,VALID,22.9943,VALID,155,VALID,0.919141,
2010-01-26, 02:26:04,VALID,1010.24,VALID,0,VALID,91.1049,VALID,0,VALID,22.9342,VALID,148,VALID,0.721094,
2010-01-26, 02:27:04,VALID,1010.24,VALID,0,VALID,91.0896,VALID,0,VALID,22.9749,VALID,147,VALID,0.605859,
2010-01-26, 02:28:04,VALID,1010.2,VALID,0,VALID,91.0744,VALID,0.105969,VALID,22.9714,VALID,154,VALID,0.615234,
2010-01-26, 02:29:04,VALID,1010.2,VALID,0,VALID,91.0896,VALID,0,VALID,22.9714,VALID,161,VALID,0.597656,
2010-01-26, 02:30:04,VALID,1010.19,VALID,0,VALID,91.0973,VALID,0,VALID,22.9519,VALID,160,VALID,0.338672,
2010-01-26, 02:31:04,VALID,1010.17,VALID,0,VALID,91.082,VALID,0.105969,VALID,22.9731,VALID,168,VALID,0.640625,
2010-01-26, 02:32:04,VALID,1010.15,VALID,0,VALID,91.0744,VALID,0.105969,VALID,22.9714,VALID,171,VALID,0.311719,
2010-01-26, 02:33:04,VALID,1010.16,VALID,0,VALID,91.0667,VALID,0.105969,VALID,22.9731,VALID,171,VALID,0.505859,
2010-01-26, 02:34:04,VALID,1010.14,VALID,0,VALID,91.0744,VALID,0,VALID,22.9926,VALID,145,VALID,0.0957031,
2010-01-26, 02:35:04,VALID,1010.13,VALID,0,VALID,91.0591,VALID,0.105969,VALID,22.9926,VALID,173,VALID,0,
2010-01-26, 02:36:04,VALID,1010.13,VALID,0,VALID,91.0744,VALID,0.105969,VALID,22.9731,VALID,152,VALID,0.544531,
2010-01-26, 02:37:04,VALID,1010.18,VALID,0,VALID,91.0973,VALID,0.105969,VALID,22.9519,VALID,164,VALID,0.788281,
2010-01-26, 02:38:04,VALID,1010.16,VALID,0,VALID,91.0896,VALID,0.105969,VALID,22.9731,VALID,175,VALID,0.261328,
2010-01-26, 02:39:04,VALID,1010.17,VALID,0,VALID,91.082,VALID,0.105969,VALID,22.9519,VALID,108,VALID,0.647656,
2010-01-26, 02:40:04,VALID,1010.19,VALID,0,VALID,91.0515,VALID,0.105969,VALID,22.9714,VALID,124,VALID,0.0628906,
2010-01-26, 02:41:04,VALID,1010.2,VALID,0,VALID,91.0896,VALID,0.105969,VALID,22.9519,VALID,121,VALID,0.686328,
2010-01-26, 02:42:04,VALID,1010.19,VALID,0,VALID,91.0896,VALID,0.105969,VALID,22.9731,VALID,120,VALID,0.421484,
2010-01-26, 02:43:04,VALID,1010.19,VALID,0,VALID,91.0896,VALID,0.105969,VALID,22.9731,VALID,120,VALID,0,
2010-01-26, 02:44:04,VALID,1010.21,VALID,0,VALID,91.0591,VALID,0.105969,VALID,22.9324,VALID,120,VALID,0,
2010-01-26, 02:45:04,VALID,1010.2,VALID,0,VALID,91.082,VALID,0,VALID,22.9714,VALID,163,VALID,0,
2010-01-26, 02:46:04,VALID,1010.22,VALID,0,VALID,91.0744,VALID,0,VALID,22.9731,VALID,169,VALID,0.701172,
2010-01-26, 02:47:04,VALID,1010.21,VALID,0,VALID,91.1049,VALID,0.105969,VALID,22.9129,VALID,169,VALID,0,
2010-01-26, 02:48:04,VALID,1010.2,VALID,0,VALID,91.1049,VALID,0.105969,VALID,22.9342,VALID,168,VALID,0.225,
2010-01-26, 02:49:04,VALID,1010.19,VALID,0,VALID,91.082,VALID,0.105969,VALID,22.9536,VALID,146,VALID,0.428906,
2010-01-26, 02:50:04,VALID,1010.18,VALID,0,VALID,91.0744,VALID,0.105969,VALID,22.9342,VALID,146,VALID,0.412109,
2010-01-26, 02:51:04,VALID,1010.19,VALID,0,VALID,91.0667,VALID,0.105969,VALID,22.9536,VALID,153,VALID,0.573438,
2010-01-26, 02:52:04,VALID,1010.19,VALID,0,VALID,91.0744,VALID,0.105969,VALID,22.9147,VALID,165,VALID,0.353906,
2010-01-26, 02:53:04,VALID,1010.18,VALID,0,VALID,91.0744,VALID,0,VALID,22.9342,VALID,165,VALID,0.465625,
2010-01-26, 02:54:04,VALID,1010.15,VALID,0,VALID,91.0973,VALID,0.105969,VALID,22.9342,VALID,169,VALID,0.384375,
2010-01-26, 02:55:04,VALID,1010.15,VALID,0,VALID,91.0973,VALID,0.105969,VALID,22.9147,VALID,183,VALID,0.504687,
2010-01-26, 02:56:04,VALID,1010.12,VALID,0,VALID,91.0973,VALID,0.105969,VALID,22.8935,VALID,185,VALID,0.239844,
2010-01-26, 02:57:04,VALID,1010.1,VALID,0,VALID,91.0667,VALID,0.105969,VALID,22.9147,VALID,162,VALID,0.441406,
2010-01-26, 02:58:04,VALID,1010.1,VALID,0,VALID,91.0591,VALID,0.105969,VALID,22.9147,VALID,161,VALID,0.157813,
2010-01-26, 02:59:04,VALID,1010.09,VALID,0,VALID,91.0744,VALID,0.105969,VALID,22.8935,VALID,128,VALID,0,
2010-01-26, 03:00:04,VALID,1010.07,VALID,0,VALID,91.082,VALID,0.105969,VALID,22.8935,VALID,127,VALID,0,
2010-01-26, 03:01:04,VALID,1010.08,VALID,0,VALID,91.1278,VALID,0.105969,VALID,22.835,VALID,127,VALID,0,
2010-01-26, 03:02:04,VALID,1010.07,VALID,0,VALID,91.143,VALID,0.105969,VALID,22.835,VALID,127,VALID,0,
2010-01-26, 03:03:04,VALID,1010.07,VALID,0,VALID,91.0973,VALID,0.105969,VALID,22.835,VALID,127,VALID,0,
2010-01-26, 03:04:04,VALID,1010.06,VALID,0,VALID,91.0896,VALID,0.105969,VALID,22.8562,VALID,127,VALID,0,
2010-01-26, 03:05:04,VALID,1010.05,VALID,0,VALID,91.0896,VALID,0.105969,VALID,22.8545,VALID,126,VALID,0,
2010-01-26, 03:06:04,VALID,1010.05,VALID,0,VALID,91.082,VALID,0.105969,VALID,22.8757,VALID,109,VALID,0,
2010-01-26, 03:07:04,VALID,1010.05,VALID,0,VALID,91.0744,VALID,0.105969,VALID,22.8545,VALID,108,VALID,0,
2010-01-26, 03:08:04,VALID,1010.05,VALID,0,VALID,91.0896,VALID,0.105969,VALID,22.8757,VALID,108,VALID,0,
2010-01-26, 03:09:04,VALID,1010.06,VALID,0,VALID,91.082,VALID,0.105969,VALID,22.8757,VALID,140,VALID,0,
2010-01-26, 03:10:04,VALID,1010.07,VALID,0,VALID,91.1354,VALID,0.105969,VALID,22.7961,VALID,108,VALID,0.585938,
2010-01-26, 03:11:04,VALID,1010.06,VALID,0,VALID,91.1354,VALID,0.211938,VALID,22.7961,VALID,108,VALID,0.530078,
2010-01-26, 03:12:04,VALID,1010.08,VALID,0,VALID,91.0744,VALID,0.105969,VALID,22.835,VALID,107,VALID,0.467969,
2010-01-26, 03:13:04,VALID,1010.08,VALID,0,VALID,91.082,VALID,0,VALID,22.8368,VALID,157,VALID,0.716406,
2010-01-26, 03:14:04,VALID,1010.08,VALID,0,VALID,91.082,VALID,0,VALID,22.8368,VALID,143,VALID,0.861719,
2010-01-26, 03:15:04,VALID,1010.07,VALID,0,VALID,91.082,VALID,0,VALID,22.8562,VALID,130,VALID,1.05859,
2010-01-26, 03:16:04,VALID,1010.05,VALID,0,VALID,91.1049,VALID,0,VALID,22.8368,VALID,136,VALID,0.966406,
2010-01-26, 03:17:04,VALID,1010.06,VALID,0,VALID,91.1049,VALID,0,VALID,22.8368,VALID,115,VALID,0.782031,
2010-01-26, 03:18:04,VALID,1010.04,VALID,0,VALID,91.0973,VALID,0,VALID,22.8173,VALID,105,VALID,0.752734,
2010-01-26, 03:19:04,VALID,1010.07,VALID,0,VALID,91.082,VALID,0,VALID,22.8173,VALID,104,VALID,0.575,
2010-01-26, 03:20:04,VALID,1010.03,VALID,0,VALID,91.0667,VALID,0,VALID,22.8368,VALID,105,VALID,0.904688,
2010-01-26, 03:21:04,VALID,1010.02,VALID,0,VALID,91.0591,VALID,0,VALID,22.8385,VALID,88,VALID,0.828125,
2010-01-26, 03:22:04,VALID,1010.02,VALID,0,VALID,91.0973,VALID,0,VALID,22.8173,VALID,97,VALID,1.22227,
2010-01-26, 03:23:04,VALID,1009.99,VALID,0,VALID,91.1049,VALID,0,VALID,22.8173,VALID,104,VALID,0.798047,
2010-01-26, 03:24:04,VALID,1009.98,VALID,0,VALID,91.0973,VALID,0,VALID,22.8173,VALID,111,VALID,0.779688,
2010-01-26, 03:25:04,VALID,1009.98,VALID,0,VALID,91.0896,VALID,0,VALID,22.8173,VALID,108,VALID,1.06523,
2010-01-26, 03:26:04,VALID,1009.96,VALID,0,VALID,91.0896,VALID,0,VALID,22.8173,VALID,102,VALID,0.453516,
2010-01-26, 03:27:04,VALID,1009.96,VALID,0,VALID,91.082,VALID,0,VALID,22.8385,VALID,89,VALID,0.898438,
2010-01-26, 03:28:04,VALID,1009.96,VALID,0,VALID,91.082,VALID,0.105969,VALID,22.835,VALID,85,VALID,0.49375,
2010-01-26, 03:29:04,VALID,1009.97,VALID,0,VALID,91.0515,VALID,0.105969,VALID,22.8562,VALID,82,VALID,0.637891,
2010-01-26, 03:30:04,VALID,1010.02,VALID,0,VALID,91.0439,VALID,0.105969,VALID,22.8935,VALID,61,VALID,0.514063,
2010-01-26, 03:31:04,VALID,1009.99,VALID,0,VALID,91.082,VALID,0.105969,VALID,22.8545,VALID,54,VALID,1.08203,
2010-01-26, 03:32:04,VALID,1010.01,VALID,0,VALID,91.082,VALID,0.105969,VALID,22.835,VALID,45,VALID,1.15508,
2010-01-26, 03:33:04,VALID,1010,VALID,0,VALID,91.1125,VALID,0.105969,VALID,22.8155,VALID,68,VALID,0.971484,
2010-01-26, 03:34:04,VALID,1010.03,VALID,0,VALID,91.1125,VALID,0.105969,VALID,22.8155,VALID,66,VALID,0.755469,
2010-01-26, 03:35:04,VALID,1010.01,VALID,0,VALID,91.1201,VALID,0,VALID,22.7783,VALID,94,VALID,1.61797,
2010-01-26, 03:36:04,VALID,1010.01,VALID,0,VALID,91.0973,VALID,0.105969,VALID,22.7978,VALID,90,VALID,1.05039,
2010-01-26, 03:37:04,VALID,1010.03,VALID,0,VALID,91.1125,VALID,0.105969,VALID,22.7376,VALID,107,VALID,0.698047,
2010-01-26, 03:38:04,VALID,1010.03,VALID,0,VALID,91.1354,VALID,0.211938,VALID,22.7376,VALID,73,VALID,0.905078,
2010-01-26, 03:39:04,VALID,1010.06,VALID,0,VALID,91.1125,VALID,0.105969,VALID,22.7182,VALID,86,VALID,0.667188,
2010-01-26, 03:40:04,VALID,1010.04,VALID,0,VALID,91.1049,VALID,0.105969,VALID,22.7571,VALID,81,VALID,0.671484,
2010-01-26, 03:41:04,VALID,1010.06,VALID,0,VALID,91.0896,VALID,0.105969,VALID,22.7376,VALID,77,VALID,0.595312,